Regional Weather Roundup
Issued by NWS

Home | Current Version | Previous Version | Text Only | Print | Product List | Glossary On
Versions: 1 2 3 4 5 6 7 8 9 10 11 12 13 14 15 16 17 18 19 20 21 22 23 24 25 26 27 28 29 30 31 32 33 34 35 36 37 38 39 40 41 42 43 44 45 46 47 48 49 50
000
ASUS43 KTOP 280459
RWRKS

WEATHER ROUNDUP FOR KANSAS
NATIONAL WEATHER SERVICE GOODLAND KS
1200 AM CDT WED SEP 28 2016

NOTE:  "FAIR" INDICATES FEW OR NO CLOUDS BELOW 12,000 FEET WITH NO
SIGNIFICANT WEATHER AND/OR OBSTRUCTIONS TO VISIBILITY.

KSZ001>006-013>018-027>032-041>047-280600-
NORTHWEST KANSAS

CITY           SKY/WX    TMP DP  RH WIND       PRES   REMARKS
GOODLAND       CLEAR     55  40  56 SW3       30.08R
HAYS           CLEAR     55  43  62 W5        29.96S
HILL CITY      CLEAR     57  48  72 W7        29.97S
RUSSELL        CLEAR     62  52  69 S9        29.93S
$$

KSZ061>065-074>080-084>089-280600-
SOUTHWEST KANSAS

CITY           SKY/WX    TMP DP  RH WIND       PRES   REMARKS
DODGE CITY     CLEAR     62  40  44 SW7       30.02R
ELKHART          N/A     69  35  28 SW9         N/A
GARDEN CITY    CLEAR     64  37  36 SW5       30.03R
GREAT BEND     CLEAR     57  46  67 CALM      29.96R
LIBERAL        CLEAR     59  37  44 SW7       30.06R
$$

KSZ066>073-081>083-090>101-280600-
SOUTHEAST KANSAS

CITY           SKY/WX    TMP DP  RH WIND       PRES   REMARKS
CHANUTE        CLEAR     63  54  72 SW6       29.92S
COFFEYVILLE    CLEAR     62  52  69 S5        29.94S
HUTCHINSON     CLEAR     57  55  93 CALM      29.94F
MEDICINE LODGE   N/A     63  55  75 SE3       29.96S
PARSONS        CLEAR     56  53  90 CALM      29.94S
WICHITA INTL   CLEAR     64  55  72 S6        29.94S
WICHITA JABRA  CLEAR     67  55  65 SW10      29.94S
WINFIELD       CLEAR     61  53  75 SW6       29.96S
$$

KSZ007>012-019>026-033>040-048>060-102>105-280600-
NORTHEAST KANSAS

CITY           SKY/WX    TMP DP  RH WIND       PRES   REMARKS
CONCORDIA      CLEAR     66  51  58 W7        29.90R
EMPORIA        CLEAR     64  55  72 SW9       29.91S
LAWRENCE       CLEAR     54  53  97 CALM      29.88S
MANHATTAN      CLEAR     57  55  93 CALM      29.89R
OLATHE IND     CLEAR     63  56  78 SW9       29.89S
OLATHE EXE     CLEAR     60  55  83 SW5       29.88F
SALINA         CLEAR     60  53  77 SW10      29.90S
TOPEKA BILLARD CLEAR     59  56  89 CALM      29.88S
TOPEKA FORBES  CLEAR     62  55  77 SW5       29.88F
$$




USA.gov is the U.S. government's official web portal to all federal, state and local government web resources and services.